STARLINK-31946, 59940

Orbit data source: Space-Track

STARLINK-31946, 59940 is a payload satellite in LEO that was launched on Sat, 01 Jun 2024 UTC via an FALCON 9 launch vehicle from the Air Force Eastern Test Range (AFETR). Payload-class satellites include a variety of spacecraft equipped with specific instruments for various scientific and technological missions. These include communications satellites like Starlink; space stations such as the ISS; scientific satellites like the Hubble; Earth observation satellites from companies like Planet Labs, Umbra, and HawkEye 360; GPS; miniature CubeSats for education and research; and military/defense satellites.

Loading next visibility...
Identifier
59940, 2024-106U
Orbit
LEO
Last TLE update
16 hours ago
Origin
Manufacturer
SpaceX/Seattle
Mission
Operational spacecraft
Bus & Motor
STARLINK V2M, Unknown motor
Mass
730 kg wet, ~700 kg dry
Launch date (UTC)
2024-06-01 (1 year ago)
Launch vehicle
FALCON 9
Launch site
Air Force Eastern Test Range (AFETR)
Object type
Payload
Rocket body
Debris
Shape & HBR
Unknown
Radar Cross Section
Large (>1 m²)

Expand to show TLE details & history

TLE from 16 hours ago
0 STARLINK-31946
1 59940U 24106U   25141.38184158  .00005863  00000-0  22261-3 0  9999
2 59940  42.9999 183.7033 0002123 288.8587  71.2034 15.27552413 46440
Epoch: 2025-05-21T09:09Z
TLE epoch observation values (Epoch: 2025-05-21T09:09:51.112Z)
Latitude
-0.00004°
Longitude
166.97373°
Altitude
482.438 km
Speed
7.626 km/s
True Right ascension
12h 14m 48s
True Declination
0° 00' 00"
Sunlit
Object was in full shadow at epoch
Visualization orbit readout
Latitude
40.99803°
Longitude
-128.82608°
Altitude
486.909 km
Speed
7.627 km/s
Apparent Right ascension
19h 14m 45s
Apparent Declination
3° 08' 60"
Sunlit
Object is in full shadow
Visualization observer readout
Local Sidereal Time
10:09:51
Azimuth
53.845° ENE
Elevation
-31.178°
Doppler factor
1
Orbital elements
Apogee altitude
486.534 km
Perigee altitude
483.62 km
Semi-major axis
6,863.214 km
Eccentricity
0.00021
Inclination
42.9999°
RAAN
183.7033°
Arg. of periapsis
288.8587°
True anomaly
Unknown
Mean anomaly
71.2034°
Eccentric anomaly
Unknown
Mean motion
3.81726 °/min
Orbital period
94.31 mins
BSTAR
0.00022261
Loading maneuver chart data...
Loading SW <> Apogee altitude chart data...
Loading historical data...
Loading historical data...
Loading historical data...
Loading historical data...
Loading historical data...
Loading historical data...
Loading historical data...

STARLINK-31946 Visibility forecast

Observer location: undefined°, undefined°

Span
Click to sort rows by Start time (UTC) header in descending order
Start Az.
Max El. time (UTC)
Max El. Az.
Max El.
End time (UTC)
End Az.
6 mins2025-05-22 05:45:38.374Z207.593° SW2025-05-22 05:48:38.374Z144.585° SSE26.769°2025-05-22 05:51:38.374Z87.502° E
6 mins2025-05-22 07:24:38.374Z260.432° W2025-05-22 07:27:38.374Z35.436° NE42.745°2025-05-22 07:30:38.374Z70.442° E
5 mins2025-05-22 09:04:38.374Z297.075° NW2025-05-22 09:06:38.374Z13.559° NNE38.029°2025-05-22 09:09:38.374Z78.349° E
5 mins2025-05-22 10:43:38.374Z285.204° WNW2025-05-22 10:45:38.374Z181.608° SSW44.662°2025-05-22 10:48:38.374Z113.744° SE
4 mins2025-05-22 12:22:38.374Z246.928° WSW2025-05-22 12:24:38.374Z205.288° SW18.162°2025-05-22 12:26:38.374Z171.41° S
|